Regional Weather Roundup
Issued by NWS Kansas City/Pleasant Hill, MO

Home | Current Version | Previous Version | Graphics & Text | Print | Product List | Glossary Off
Versions: 1 2 3 4 5 6 7 8 9 10 11 12 13 14 15 16 17 18 19 20 21 22 23 24 25 26 27 28 29 30 31 32 33 34 35 36 37 38 39 40 41 42 43 44 45 46 47 48 49 50

000
ASUS43 KEAX 010310
RWREAX

WEATHER ROUNDUP FOR EASTERN KANSAS AND NORTHWEST MISSOURI
NATIONAL WEATHER SERVICE KANSAS CITY/PLEASANT HILL MO
1000 PM CDT MON AUG 31 2015

KSZ040-057-103>105-MOZ028-029-037-043-010400-
...KANSAS CITY METROPOLITAN AREA...

CITY           SKY/WX    TMP DP  RH WIND       PRES   REMARKS
K.C. INTL      CLEAR     76  70  82 S10       29.97R
K.C. DOWNTOWN  CLEAR     82  70  66 S8        29.97R
LEES SUMMIT    CLEAR     80  67  64 S9        29.99R
OLATHE - IXD   CLEAR     77  70  79 S8        30.00R
OLATHE - OJC   CLEAR     76  70  82 S7        29.99R
LAWRENCE       CLEAR     75  70  84 SE7       29.97R

$$

MOZ001>008-011>017-020>025-030>033-038>040-044>046-053-054-010400-
...NORTHERN AND CENTRAL MISSOURI...

CITY           SKY/WX    TMP DP  RH WIND       PRES   REMARKS
ST. JOSEPH     CLEAR     75  70  84 S5        29.95R
MOSBY          CLEAR     77  70  78 CALM      29.97S
WARRENSBURG    CLEAR     77  68  73 S5        30.00R
WHITEMAN AFB   CLEAR     76  69  80 S6        29.99R
CLINTON        CLEAR     79  72  78 CALM      30.01R
SEDALIA        CLEAR     77  69  76 S7        30.02R
WARSAW         NOT AVBL
CHILLICOTHE      N/A     79  71  76 S5        29.98R
KIRKSVILLE     CLEAR     74  67  78 S3        30.01R

$$

MOZ041-047>049-056>058-063>065-088>090-097-010400-
...EASTERN AND SOUTHERN MISSOURI...

CITY           SKY/WX    TMP DP  RH WIND       PRES   REMARKS
ST. LOUIS INTL PTCLDY    82  72  71 S8        30.05R
SPIRIT OF STL  CLEAR     80  73  79 S7        30.02R
COLUMBIA       CLEAR     78  71  79 S7        30.02R
JEFFERSON CITY FAIR      80  70  71 E5        30.01R
ROLLA          CLEAR     77  70  79 S9        30.05R
OSAGE BEACH    CLEAR     79  70  73 S5        30.04S
SPRINGFIELD    CLEAR     75  68  78 S8        30.05R
BRANSON        CLEAR     73  68  83 S5        30.08R
JOPLIN         CLEAR     77  70  79 SE8       30.03R
WEST PLAINS    CLEAR     75  68  78 CALM      30.11R

$$

IAZ060-094-KSZ022-034>040-054-083-096-NEZ052-066-093-010400-
...KANSAS...SOUTHEAST NEBRASKA AND IOWA...

CITY           SKY/WX    TMP DP  RH WIND       PRES   REMARKS
TOPEKA         CLEAR     78  70  76 SE7       29.96R
MANHATTAN      CLEAR     79  70  74 S8        29.93R
EMPORIA        CLEAR     77  67  71 S13       29.98R
CHANUTE        PTCLDY    78  71  79 S8        30.00R
WICHITA        PTCLDY    79  63  57 SE10      29.96R
OMAHA          CLEAR     75  69  81 SE6       29.92R
LINCOLN        CLEAR     76  68  76 SE3       29.93R
FALLS CITY     CLEAR     75  71  87 SE8       29.93R
LAMONI         CLEAR     77  68  73 SE7       29.98R
DES MOINES     PTCLDY    77  71  82 S6        29.95R

$$



USA.gov is the U.S. government's official web portal to all federal, state and local government web resources and services.